Вернуться в каталог

STARLINK-34315

АктивенСвязьVLEO
NORAD 64266·PAYLOAD·🇺🇸 United States

Запущен Jun 4, 2025 с Vandenberg Space Force Base

Loading…

Ближайшие Пролёты (ближайшие 24 часа)

TLE

СвежийSource: CelesTrak SupGP

Эпоха: Sep 15, 2026, 03:54 UTC

1 64266C 25120L   26258.16298611  .00035017  00000+0  10365-2 0  2581
2 64266  53.1590 314.5810 0001440  85.0447 287.2285 15.34315982    14

Отслеживайте STARLINK-34315 в реальном времени с AllMySat

Download on the App Store